Time,TemperatureF,DewpointF,PressureIn,WindDirection,WindDirectionDegrees,WindSpeedMPH,WindSpeedGustMPH,Humidity,HourlyPrecipIn,Conditions,Clouds,dailyrainin,SoftwareType,DateUTC
2013-01-25 01:00:00,24.0,23.0,-100.00,WNW,287,7.0,10.0,94,-99.99,,,-99.99,,2013-01-25 08:00:00,
2013-01-25 01:32:00,24.0,23.0,-100.00,WNW,287,7.0,10.0,94,-99.99,,,-99.99,,2013-01-25 08:32:00,
2013-01-25 01:42:00,24.0,23.0,-100.00,WNW,287,7.0,10.0,94,-99.99,,,-99.99,,2013-01-25 08:42:00,
2013-01-25 01:52:00,24.0,23.0,-100.00,WNW,287,7.0,10.0,94,-99.99,,,-99.99,,2013-01-25 08:52:00,
2013-01-25 02:00:00,24.0,23.0,-100.00,West,277,6.0,12.0,94,-99.99,,,-99.99,,2013-01-25 09:00:00,
2013-01-25 02:32:00,24.0,23.0,-100.00,West,277,6.0,12.0,94,-99.99,,,-99.99,,2013-01-25 09:32:00,
2013-01-25 02:42:00,24.0,23.0,-100.00,West,277,6.0,12.0,94,-99.99,,,-99.99,,2013-01-25 09:42:00,
2013-01-25 02:52:00,24.0,23.0,-100.00,West,277,6.0,12.0,94,-99.99,,,-99.99,,2013-01-25 09:52:00,
2013-01-25 03:00:00,24.0,23.0,-100.00,WNW,283,5.0,11.0,94,-99.99,,,-99.99,,2013-01-25 10:00:00,
2013-01-25 03:32:00,24.0,23.0,-100.00,WNW,283,5.0,11.0,94,-99.99,,,-99.99,,2013-01-25 10:32:00,
2013-01-25 03:42:00,24.0,23.0,-100.00,WNW,283,5.0,11.0,94,-99.99,,,-99.99,,2013-01-25 10:42:00,
2013-01-25 03:52:00,24.0,23.0,-100.00,WNW,283,5.0,11.0,94,-99.99,,,-99.99,,2013-01-25 10:52:00,
2013-01-25 04:00:00,24.0,23.0,-100.00,West,281,6.0,13.0,94,-99.99,,,-99.99,,2013-01-25 11:00:00,
2013-01-25 04:33:00,24.0,23.0,-100.00,West,281,6.0,13.0,94,-99.99,,,-99.99,,2013-01-25 11:33:00,
2013-01-25 04:42:00,24.0,23.0,-100.00,West,281,6.0,13.0,94,-99.99,,,-99.99,,2013-01-25 11:42:00,
2013-01-25 04:52:00,24.0,23.0,-100.00,West,281,6.0,13.0,94,-99.99,,,-99.99,,2013-01-25 11:52:00,
2013-01-25 05:00:00,24.0,22.0,-100.00,WNW,282,7.0,12.0,94,-99.99,,,-99.99,,2013-01-25 12:00:00,
2013-01-25 05:33:00,24.0,22.0,-100.00,WNW,282,7.0,12.0,94,-99.99,,,-99.99,,2013-01-25 12:33:00,
2013-01-25 05:42:00,24.0,22.0,-100.00,WNW,282,7.0,12.0,94,-99.99,,,-99.99,,2013-01-25 12:42:00,
2013-01-25 05:53:00,24.0,22.0,-100.00,WNW,282,7.0,12.0,94,-99.99,,,-99.99,,2013-01-25 12:53:00,
2013-01-25 06:00:00,23.0,22.0,-100.00,West,281,5.0,10.0,94,-99.99,,,-99.99,,2013-01-25 13:00:00,
2013-01-25 06:33:00,23.0,22.0,-100.00,West,281,5.0,10.0,94,-99.99,,,-99.99,,2013-01-25 13:33:00,
2013-01-25 06:43:00,23.0,22.0,-100.00,West,281,5.0,10.0,94,-99.99,,,-99.99,,2013-01-25 13:43:00,
2013-01-25 06:52:00,23.0,22.0,-100.00,West,281,5.0,10.0,94,-99.99,,,-99.99,,2013-01-25 13:52:00,
2013-01-25 07:00:00,23.0,22.0,-100.00,WNW,285,4.0,11.0,93,-99.99,,,-99.99,,2013-01-25 14:00:00,
2013-01-25 07:33:00,23.0,22.0,-100.00,WNW,285,4.0,11.0,93,-99.99,,,-99.99,,2013-01-25 14:33:00,
2013-01-25 07:42:00,23.0,22.0,-100.00,WNW,285,4.0,11.0,93,-99.99,,,-99.99,,2013-01-25 14:42:00,
2013-01-25 07:53:00,23.0,22.0,-100.00,WNW,285,4.0,11.0,93,-99.99,,,-99.99,,2013-01-25 14:53:00,
2013-01-25 10:00:00,25.0,24.0,-100.00,WNW,289,2.0,6.0,93,-99.99,,,-99.99,,2013-01-25 17:00:00,
2013-01-25 10:33:00,25.0,24.0,-100.00,WNW,289,2.0,6.0,93,-99.99,,,-99.99,,2013-01-25 17:33:00,
2013-01-25 10:43:00,25.0,24.0,-100.00,WNW,289,2.0,6.0,93,-99.99,,,-99.99,,2013-01-25 17:43:00,
2013-01-25 10:53:00,25.0,24.0,-100.00,WNW,289,2.0,6.0,93,-99.99,,,-99.99,,2013-01-25 17:53:00,
2013-01-25 11:00:00,27.0,25.0,-100.00,WSW,249,2.0,6.0,93,-99.99,,,-99.99,,2013-01-25 18:00:00,
2013-01-25 11:33:00,27.0,25.0,-100.00,WSW,249,2.0,6.0,93,-99.99,,,-99.99,,2013-01-25 18:33:00,
2013-01-25 11:43:00,27.0,25.0,-100.00,WSW,249,2.0,6.0,93,-99.99,,,-99.99,,2013-01-25 18:43:00,
2013-01-25 11:52:00,27.0,25.0,-100.00,WSW,249,2.0,6.0,93,-99.99,,,-99.99,,2013-01-25 18:52:00,
2013-01-25 12:00:00,27.0,25.0,-100.00,South,191,3.0,7.0,93,-99.99,,,-99.99,,2013-01-25 19:00:00,
2013-01-25 12:33:00,27.0,25.0,-100.00,South,191,3.0,7.0,93,-99.99,,,-99.99,,2013-01-25 19:33:00,
2013-01-25 12:42:00,27.0,25.0,-100.00,South,191,3.0,7.0,93,-99.99,,,-99.99,,2013-01-25 19:42:00,
2013-01-25 12:53:00,27.0,25.0,-100.00,South,191,3.0,7.0,93,-99.99,,,-99.99,,2013-01-25 19:53:00,
2013-01-25 15:00:00,26.0,24.0,-100.00,WNW,293,4.0,11.0,91,-99.99,,,-99.99,,2013-01-25 22:00:00,
2013-01-25 15:33:00,26.0,24.0,-100.00,WNW,293,4.0,11.0,91,-99.99,,,-99.99,,2013-01-25 22:33:00,
2013-01-25 15:42:00,26.0,24.0,-100.00,WNW,293,4.0,11.0,91,-99.99,,,-99.99,,2013-01-25 22:42:00,
2013-01-25 15:52:00,26.0,24.0,-100.00,WNW,293,4.0,11.0,91,-99.99,,,-99.99,,2013-01-25 22:52:00,
2013-01-25 16:00:00,24.0,22.0,-100.00,WNW,293,8.0,15.0,92,-99.99,,,-99.99,,2013-01-25 23:00:00,
2013-01-25 16:32:00,24.0,22.0,-100.00,WNW,293,8.0,15.0,92,-99.99,,,-99.99,,2013-01-25 23:32:00,
2013-01-25 16:42:00,24.0,22.0,-100.00,WNW,293,8.0,15.0,92,-99.99,,,-99.99,,2013-01-25 23:42:00,
2013-01-25 16:52:00,24.0,22.0,-100.00,WNW,293,8.0,15.0,92,-99.99,,,-99.99,,2013-01-25 23:52:00,
2013-01-25 17:00:00,24.0,22.0,-100.00,WNW,285,8.0,13.0,92,-99.99,,,-99.99,,2013-01-26 00:00:00,
2013-01-25 17:33:00,24.0,22.0,-100.00,WNW,285,8.0,13.0,92,-99.99,,,-99.99,,2013-01-26 00:33:00,
2013-01-25 17:42:00,24.0,22.0,-100.00,WNW,285,8.0,13.0,92,-99.99,,,-99.99,,2013-01-26 00:42:00,
2013-01-25 17:53:00,24.0,22.0,-100.00,WNW,285,8.0,13.0,92,-99.99,,,-99.99,,2013-01-26 00:53:00,
2013-01-25 18:00:00,24.0,22.0,-100.00,WNW,289,8.0,16.0,93,-99.99,,,-99.99,,2013-01-26 01:00:00,
2013-01-25 18:32:00,24.0,22.0,-100.00,WNW,289,8.0,16.0,93,-99.99,,,-99.99,,2013-01-26 01:32:00,
2013-01-25 18:42:00,24.0,22.0,-100.00,WNW,289,8.0,16.0,93,-99.99,,,-99.99,,2013-01-26 01:42:00,
2013-01-25 18:52:00,24.0,22.0,-100.00,WNW,289,8.0,16.0,93,-99.99,,,-99.99,,2013-01-26 01:52:00,
2013-01-25 19:00:00,23.0,21.0,-100.00,WNW,282,8.0,14.0,93,-99.99,,,-99.99,,2013-01-26 02:00:00,
2013-01-25 19:32:00,23.0,21.0,-100.00,WNW,282,8.0,14.0,93,-99.99,,,-99.99,,2013-01-26 02:32:00,
2013-01-25 19:42:00,23.0,21.0,-100.00,WNW,282,8.0,14.0,93,-99.99,,,-99.99,,2013-01-26 02:42:00,
2013-01-25 19:52:00,23.0,21.0,-100.00,WNW,282,8.0,14.0,93,-99.99,,,-99.99,,2013-01-26 02:52:00,
2013-01-25 20:00:00,23.0,21.0,-100.00,West,263,8.0,14.0,93,-99.99,,,-99.99,,2013-01-26 03:00:00,
2013-01-25 20:32:00,23.0,21.0,-100.00,West,263,8.0,14.0,93,-99.99,,,-99.99,,2013-01-26 03:32:00,
2013-01-25 20:43:00,23.0,21.0,-100.00,West,263,8.0,14.0,93,-99.99,,,-99.99,,2013-01-26 03:43:00,
2013-01-25 20:52:00,23.0,21.0,-100.00,West,263,8.0,14.0,93,-99.99,,,-99.99,,2013-01-26 03:52:00,
2013-01-25 21:00:00,23.0,21.0,-100.00,SW,223,7.0,13.0,92,-99.99,,,-99.99,,2013-01-26 04:00:00,
2013-01-25 21:32:00,23.0,21.0,-100.00,SW,223,7.0,13.0,92,-99.99,,,-99.99,,2013-01-26 04:32:00,
2013-01-25 21:42:00,23.0,21.0,-100.00,SW,223,7.0,13.0,92,-99.99,,,-99.99,,2013-01-26 04:42:00,
2013-01-25 21:52:00,23.0,21.0,-100.00,SW,223,7.0,13.0,92,-99.99,,,-99.99,,2013-01-26 04:52:00,
2013-01-25 22:00:00,23.0,22.0,-100.00,SW,226,10.0,18.0,93,-99.99,,,-99.99,,2013-01-26 05:00:00,
2013-01-25 22:33:00,23.0,22.0,-100.00,SW,226,10.0,18.0,93,-99.99,,,-99.99,,2013-01-26 05:33:00,
2013-01-25 22:42:00,23.0,22.0,-100.00,SW,226,10.0,18.0,93,-99.99,,,-99.99,,2013-01-26 05:42:00,
2013-01-25 22:52:00,23.0,22.0,-100.00,SW,226,10.0,18.0,93,-99.99,,,-99.99,,2013-01-26 05:52:00,
2013-01-25 23:00:00,24.0,23.0,-100.00,SW,232,10.0,16.0,93,-99.99,,,-99.99,,2013-01-26 06:00:00,
2013-01-25 23:32:00,24.0,23.0,-100.00,SW,232,10.0,16.0,93,-99.99,,,-99.99,,2013-01-26 06:32:00,
2013-01-25 23:42:00,24.0,23.0,-100.00,SW,232,10.0,16.0,93,-99.99,,,-99.99,,2013-01-26 06:42:00,
2013-01-25 23:52:00,24.0,23.0,-100.00,SW,232,10.0,16.0,93,-99.99,,,-99.99,,2013-01-26 06:52:00,